Regional Weather Roundup
Issued by NWS

Home | Current Version | Previous Version | Graphics & Text | Print | Product List | Glossary On
Versions: 1 2 3 4 5 6 7 8 9 10 11 12 13 14 15 16 17 18 19 20 21 22 23 24 25 26 27 28
000
ASUS45 KSLC 200710
RWRUT

UTAH REGIONAL WEATHER ROUNDUP
NATIONAL WEATHER SERVICE SALT LAKE CITY UT
100 AM MDT THU JUL 20 2017

UTZ001>011-023>025-200800-

NORTHERN UTAH

CITY           SKY/WX    TMP DP  RH WIND       PRES   REMARKS
BRIGHAM CITY   MOCLDY    75  54  46 CALM      30.05F
HILL AFB       CLOUDY    76  53  44 E15       30.08F
LOGAN          MOCLDY    72  49  44 CALM      30.06S
OGDEN          MOCLDY    76  53  44 S7        30.04F
SALT LAKE CITY CLOUDY    80  58  46 S17       30.04S
TOOELE VALLEY  CLOUDY    79  54  41 S14       30.03S
WENDOVER       CLOUDY    82  55  39 CALM      30.01S
HEBER CITY     MOCLDY    63  55  77 CALM      30.21S
WEST JORDAN    CLOUDY    74  66  75 S16       30.09S

$$

UTZ011>015-024>027-200800-

CENTRAL/NORTHEAST UTAH

CITY           SKY/WX    TMP DP  RH WIND       PRES   REMARKS
PROVO AIRPORT  MOCLDY    71  59  65 SE3       30.11F
MOAB/CANYONLAN MOCLDY    75  61  61 SE12      30.09S
DELTA          MOCLDY    75  50  41 S8        30.11F
PRICE          MOCLDY    74  52  46 N12       30.22S
ROOSEVELT      CLOUDY    68  59  73 W3        30.27F
VERNAL         CLOUDY    67  61  81 SW12      30.24S

$$

UTZ013>016-019>022-027-200800-

SOUTHERN UTAH

CITY           SKY/WX    TMP DP  RH WIND       PRES   REMARKS
BRYCE CANYON   PTCLDY    56  54  93 W5        30.38F
CEDAR CITY     MOCLDY    71  60  68 SW10      30.20F
MILFORD        MOCLDY    75  58  55 S15       30.15S
ST GEORGE      PTSUNNY   81  64  56 S5        30.03S
HANKSVILLE     MOCLDY    72  55  56 CALM      30.11S
BLANDING       MOCLDY    71  50  48 SE5       30.29R

$$

REGIONAL REPORTS     COLORADO/ARIZONA

CITY           SKY/WX    TMP DP  RH WIND       PRES   REMARKS
CRAIG, CO      CLOUDY    63  55  75 SE10      30.31F
GRAND JUNCTION CLOUDY    75  56  51 SW12G18   30.17F
RIFLE, CO      LGT RAIN  69  59  70 S3        30.31R
MONTROSE, CO   CLOUDY    72  56  57 S15       30.31R THUNDER
CORTEZ, CO     LGT RAIN  75  51  43 N13G24    30.21F
COLORADO CITY    N/A     70  64  83 CALM      30.21F
PAGE, AZ       CLEAR     77  56  48 SE3       30.12S
GRAND CANYON   PTCLDY    57  55  93 CALM      30.33S
KINGMAN, AZ    MOCLDY    73  68  84 SE3       30.08F
FLAGSTAFF, AZ  MOCLDY    56  54  93 NE3       30.37R

$$

REGIONAL REPORTS    NEVADA/IDAHO/WYOMING

CITY           SKY/WX    TMP DP  RH WIND       PRES   REMARKS
LAS VEGAS, NV  MOCLDY    86  63  45 CALM      29.97S
ELY, NY        PTCLDY    69  52  54 S10       30.22R
ELKO, NV       PTCLDY    66  30  26 CALM      30.08S
POCATELLO, ID  CLEAR     68  43  40 NE3       30.04S
BURLEY, ID     PTCLDY    66  50  56 SW7       29.99F
FORT BRIDGER,  PTSUNNY   64  48  56 S9        30.30F
EVANSTON, WY   CLOUDY    65  48  54 SW3       30.29S
ROCK SPRINGS,  CLOUDY    64  50  60 S9        30.29F
KEMMERER, WY     N/A     63  45  51 CALM      30.31S

$$




USA.gov is the U.S. government's official web portal to all federal, state and local government web resources and services.